Location: Krakow
(50.0830°N, 19.9170°E)
Time: 13:21:25
(UTC+01:00)

SR - Visible Passes

Search period start: 05 March 2024 00:00
Search period end: 15 March 2024 00:00
Orbit: 574 x 867 km, 66.7° (Epoch: 04 March)

Date Brightness Start Highest point End Pass type
(mag) Time Alt. Az. Time Alt. Az. Time Alt. Az.
05 Mar ? 18:42:01 10° NNW 18:45:35 18° NNE 18:48:16 13° ENE visible
05 Mar ? 20:23:41 10° NNW 20:27:31 43° N 20:27:31 43° N visible
05 Mar ? 22:06:11 10° NW 22:06:47 13° WNW 22:06:47 13° WNW visible
06 Mar ? 19:31:54 10° NNW 19:36:33 33° NE 19:37:11 32° NE visible
06 Mar ? 21:13:52 10° NW 21:16:26 28° WNW 21:16:26 28° WNW visible
07 Mar ? 18:40:09 10° NNW 18:44:12 22° NNE 18:46:52 15° ENE visible
07 Mar ? 20:21:51 10° NW 20:26:08 62° NNW 20:26:08 62° NNW visible
07 Mar ? 22:05:08 10° WNW 22:05:24 11° WNW 22:05:24 11° WNW visible
08 Mar ? 19:30:00 10° NNW 19:34:55 46° NE 19:35:51 41° ENE visible
08 Mar ? 21:12:18 10° NW 21:15:07 26° W 21:15:07 26° W visible
09 Mar ? 18:38:13 10° NNW 18:42:42 29° NE 18:45:37 16° E visible
09 Mar ? 20:20:05 10° NW 20:24:53 62° WSW 20:24:53 62° WSW visible
10 Mar ? 19:28:07 10° NW 19:33:11 70° NE 19:34:42 42° ESE visible
10 Mar ? 21:11:03 10° WNW 21:13:59 19° W 21:13:59 19° W visible
11 Mar ? 18:36:17 10° NNW 18:41:06 40° NE 18:44:35 15° ESE visible
11 Mar ? 20:18:27 10° NW 20:22:58 37° WSW 20:23:52 34° SW visible
12 Mar ? 19:26:18 10° NW 19:31:17 74° WSW 19:33:48 27° SSE visible
12 Mar ? 21:10:51 10° W 21:12:08 11° WSW 21:13:06 10° WSW visible
13 Mar ? 18:34:23 10° NNW 18:39:22 60° NE 18:43:50 10° SE visible
13 Mar ? 20:17:03 10° WNW 20:20:48 23° WSW 20:23:07 16° SSW visible
14 Mar ? 19:24:35 10° NW 19:29:16 45° WSW 19:33:15 12° S visible
